Location: Belloy
(55.7522°N, 118.2333°W)
Time: 00:21:46
(UTC+00:00)

Envisat - Pass Details

Date: 03 December 2021
Orbit: 764 x 766 km, 98.2° (Epoch: 27 January)

Event Time Altitude Azimuth Distance (km) Brightness Sun altitude
Rises 12:46:51 0° 17° (NNE) 3,249 6.4 -26.0°
Reaches altitude 10° 12:49:13 10° 22° (NNE) 2,318 5.7 -25.6°
Maximum altitude 12:54:15 57° 101° (E) 908 3.6 -24.9°
Drops below altitude 10° 12:59:14 10° 180° (S) 2,301 5.5 -24.2°
Sets 13:01:34 0° 184° (S) 3,222 6.2 -23.9°
